This demonstration page uses our WeatherBlox Daily Observations layout. Learn more.

Left ArrowRight Arrow

Hourly Observations for December 2, 2016

Temp ( °F °C ) Dew Point ( °F °C ) Humidity (%) Winds ( mph kmh ) Pressure ( in mb ) Visibility ( mi km ) Precip ( " mm )
12:51 am 00:51 Clear 40 4.4 23 -5 51 51 ENE 3 6 29.84 1011 10 16 N/A
1:51 am 01:51 Clear 40 4.4 22 -5.6 49 49 N N/A 29.83 1010 10 16 N/A
2:51 am 02:51 Clear 39 3.9 22 -5.6 50 50 ESE 3 6 29.82 1010 10 16 N/A
3:51 am 03:51 Clear 37 2.8 23 -5 57 57 E 5 7 29.81 1010 10 16 N/A
4:51 am 04:51 Clear 36 2.2 22 -5.6 57 57 E 6 9 29.82 1010 10 16 N/A
5:51 am 05:51 Clear 32 undefined 22 -5.6 66 66 N N/A 29.85 1011 10 16 N/A
6:51 am 06:51 Clear 31 -0.6 21 -6.1 67 67 ESE 5 7 29.88 1012 10 16 N/A
7:51 am 07:51 Sunny 37 2.8 21 -6.1 52 52 N N/A 29.89 1012 10 16 N/A
8:51 am 08:51 Sunny 42 5.6 21 -6.1 43 43 SE 5 7 29.89 1012 10 16 N/A
9:51 am 09:51 Sunny 52 11.1 21 -6.1 30 30 E 8 13 29.88 1012 10 16 N/A
10:51 am 10:51 Sunny 54 12.2 20 -6.7 26 26 ESE 8 13 29.88 1012 10 16 N/A
11:51 am 11:51 Sunny 58 14.4 15 -9.4 18 18 SE 12 19 29.84 1010 10 16 N/A
12:51 pm 12:51 Sunny 58 14.4 10 -12.2 15 15 S 12 19 29.82 1010 10 16 N/A
1:51 pm 13:51 Sunny 61 16.1 12 -11.1 14 14 SSE 7 11 29.79 1009 10 16 N/A
2:51 pm 14:51 Sunny 61 16.1 12 -11.1 14 14 E 7 11 29.79 1009 10 16 N/A
3:51 pm 15:51 Sunny 60 15.6 12 -11.1 15 15 ESE 8 13 29.79 1009 10 16 N/A
4:51 pm 16:51 Sunny 57 13.9 14 -10 18 18 ESE 3 6 29.80 1009 10 16 N/A
5:51 pm 17:51 Cloudy 54 12.2 16 -8.9 22 22 W 7 11 29.83 1010 10 16 N/A
6:51 pm 18:51 Cloudy 52 11.1 17 -8.3 25 25 W 12 19 29.84 1011 10 16 N/A
7:51 pm 19:51 Cloudy 50 10 18 -7.8 28 28 WNW 12 19 29.84 1011 10 16 N/A
8:51 pm 20:51 Cloudy 49 9.4 18 -7.8 29 29 NNW 6 9 29.86 1011 10 16 N/A
9:51 pm 21:51 Cloudy 47 8.3 18 -7.8 31 31 N 6 9 29.83 1010 10 16 N/A
10:51 pm 22:51 Cloudy 46 7.8 19 -7.2 34 34 undefined N/A 29.84 1011 10 16 N/A
11:51 pm 23:51 Cloudy 46 7.8 21 -6.1 37 37 N N/A 29.83 1010 10 16 N/A

Powered by AerisWeather